﻿_id,日時,平均風速(m/s),平均風向,最大瞬間風速(m/s),最大風速時風向,気温(℃),湿度(%),10分間移動積算雨量(mm),1時間移動積算雨量(mm),日雨量(mm),累計雨量(mm),日射(日積算)(MJ/m2),日照(日積算)(min),現地気圧(hPa),海面気圧(hPa)
1,2022-09-12T00:00:00,0.6,北北東,1.4,東,25.2,94.5,0,0,0,0,18.58,446,1002,1015.4
2,2022-09-12T00:01:00,0.6,北東,1.4,東,25.2,94.6,0,0,0,0,0,0,1002,1015.4
3,2022-09-12T00:02:00,0.5,北東,1.4,東,25.1,94.3,0,0,0,0,0,0,1002,1015.4
4,2022-09-12T00:03:00,0.5,東北東,1.4,東,25.2,94.6,0,0,0,0,0,0,1001.9,1015.3
5,2022-09-12T00:04:00,0.6,東北東,1.5,東北東,25.2,94.6,0,0,0,0,0,0,1001.9,1015.3
6,2022-09-12T00:05:00,0.6,東北東,1.5,東北東,25.3,95,0,0,0,0,0,0,1001.9,1015.3
7,2022-09-12T00:06:00,0.6,東北東,1.5,東北東,25.3,94.5,0,0,0,0,0,0,1001.9,1015.3
8,2022-09-12T00:07:00,0.5,東北東,1.5,東北東,25.3,94,0,0,0,0,0,0,1001.9,1015.3
9,2022-09-12T00:08:00,0.5,東北東,1.5,東北東,25.3,93.8,0,0,0,0,0,0,1001.9,1015.3
10,2022-09-12T00:09:00,0.5,東北東,1.5,東北東,25.3,93.5,0,0,0,0,0,0,1002,1015.4
11,2022-09-12T00:10:00,0.5,北東,1.5,東北東,25.3,93.2,0,0,0,0,0,0,1002,1015.4
12,2022-09-12T00:11:00,0.5,北東,1.5,東北東,25.3,93.4,0,0,0,0,0,0,1002,1015.4
13,2022-09-12T00:12:00,0.5,北東,1.5,東北東,25.2,93.2,0,0,0,0,0,0,1002,1015.4
14,2022-09-12T00:13:00,0.5,北東,1.5,東北東,25.4,93.4,0,0,0,0,0,0,1002,1015.4
15,2022-09-12T00:14:00,0.5,北東,1.5,北東,25.4,93.4,0,0,0,0,0,0,1002,1015.4
16,2022-09-12T00:15:00,0.5,北東,1.5,北東,25.3,92.8,0,0,0,0,0,0,1002,1015.4
17,2022-09-12T00:16:00,0.6,北東,1.5,北東,25.4,93.1,0,0,0,0,0,0,1002,1015.4
18,2022-09-12T00:17:00,0.6,北東,1.5,北東,25.5,93.4,0,0,0,0,0,0,1002,1015.4
19,2022-09-12T00:18:00,0.7,北東,1.5,北東,25.4,92.9,0,0,0,0,0,0,1002,1015.4
20,2022-09-12T00:19:00,0.8,北東,1.5,北東,25.4,92.9,0,0,0,0,0,0,1002,1015.4
21,2022-09-12T00:20:00,0.8,北東,1.4,北北東,25.4,92.8,0,0,0,0,0,0,1002,1015.4
22,2022-09-12T00:21:00,0.8,北東,1.6,北北東,25.6,93,0,0,0,0,0,0,1002,1015.4
23,2022-09-12T00:22:00,0.9,北東,1.6,北北東,25.7,92.8,0,0,0,0,0,0,1002,1015.3
24,2022-09-12T00:23:00,0.9,北北東,1.6,北北東,25.4,92,0,0,0,0,0,0,1002,1015.4
25,2022-09-12T00:24:00,1.1,北北東,1.8,北,25.5,92.1,0,0,0,0,0,0,1002,1015.4
26,2022-09-12T00:25:00,1.1,北北東,2,北北東,25.5,92.4,0,0,0,0,0,0,1002,1015.4
27,2022-09-12T00:26:00,1.1,北北東,2,北北東,25.4,92.2,0,0,0,0,0,0,1002,1015.4
28,2022-09-12T00:27:00,1.1,北北東,2.3,西北西,25.2,92,0,0,0,0,0,0,1001.9,1015.3
29,2022-09-12T00:28:00,1.2,北,2.3,西北西,25,91.6,0,0,0,0,0,0,1002,1015.4
30,2022-09-12T00:29:00,1.3,北,2.3,西北西,25,92.7,0,0,0,0,0,0,1001.9,1015.3
31,2022-09-12T00:30:00,1.3,北北西,2.3,西北西,25,93.6,0,0,0,0,0,0,1001.9,1015.3
32,2022-09-12T00:31:00,1.3,北北西,2.3,西北西,25,93.8,0,0,0,0,0,0,1001.9,1015.3
33,2022-09-12T00:32:00,1.3,北西,2.3,西北西,25,94,0,0,0,0,0,0,1001.9,1015.3
34,2022-09-12T00:33:00,1.4,北西,2.3,西北西,24.9,93.9,0,0,0,0,0,0,1001.9,1015.3
35,2022-09-12T00:34:00,1.4,北西,2.3,西北西,25,94.1,0,0,0,0,0,0,1001.9,1015.3
36,2022-09-12T00:35:00,1.4,西北西,2.3,西北西,25,94.5,0,0,0,0,0,0,1001.9,1015.3
37,2022-09-12T00:36:00,1.6,西北西,2.5,西北西,24.7,93.7,0,0,0,0,0,0,1001.9,1015.3
38,2022-09-12T00:37:00,1.6,西北西,2.5,西北西,24.7,94.2,0,0,0,0,0,0,1001.9,1015.3
39,2022-09-12T00:38:00,1.6,西北西,2.5,西北西,24.6,94.7,0,0,0,0,0,0,1001.9,1015.3
40,2022-09-12T00:39:00,1.7,西北西,2.7,西,24.6,95.1,0,0,0,0,0,0,1001.9,1015.3
41,2022-09-12T00:40:00,1.7,西北西,2.7,西,24.5,95.3,0,0,0,0,0,0,1001.8,1015.2
42,2022-09-12T00:41:00,1.7,西,2.7,西,24.5,95.4,0,0,0,0,0,0,1001.8,1015.2
43,2022-09-12T00:42:00,1.7,西,2.7,西,24.5,95.8,0,0,0,0,0,0,1001.8,1015.2
44,2022-09-12T00:43:00,1.8,西,2.7,西,24.4,95.8,0,0,0,0,0,0,1001.8,1015.2
45,2022-09-12T00:44:00,1.8,西,2.7,西,24.3,95.8,0,0,0,0,0,0,1001.8,1015.2
46,2022-09-12T00:45:00,1.9,西,2.8,西南西,24.3,96,0,0,0,0,0,0,1001.8,1015.2
47,2022-09-12T00:46:00,1.9,西,3.1,西南西,24.3,96.2,0,0,0,0,0,0,1001.8,1015.2
48,2022-09-12T00:47:00,1.9,西,3.1,西南西,24.2,96.4,0,0,0,0,0,0,1001.8,1015.2
49,2022-09-12T00:48:00,2,西,3.1,西南西,24.2,96.6,0,0,0,0,0,0,1001.8,1015.2
50,2022-09-12T00:49:00,2,西,3.3,西,24.2,96.7,0,0,0,0,0,0,1001.8,1015.2
51,2022-09-12T00:50:00,2.1,西,3.3,西,24.2,96.8,0,0,0,0,0,0,1001.8,1015.2
52,2022-09-12T00:51:00,2.1,西,3.3,西,24.2,97,0,0,0,0,0,0,1001.7,1015.1
53,2022-09-12T00:52:00,2.1,西南西,3.3,西,24.2,97.1,0,0,0,0,0,0,1001.7,1015.1
54,2022-09-12T00:53:00,2.1,西,3.3,西,24.2,97.2,0,0,0,0,0,0,1001.7,1015.1
55,2022-09-12T00:54:00,2.1,西,3.3,西,24.2,97.4,0,0,0,0,0,0,1001.7,1015.1
56,2022-09-12T00:55:00,2.1,西,3.3,西,24.2,97.3,0,0,0,0,0,0,1001.7,1015.1
57,2022-09-12T00:56:00,2,西,3.3,西,24.2,97.4,0,0,0,0,0,0,1001.7,1015.1
58,2022-09-12T00:57:00,1.9,西,3.3,西,24.2,97.4,0,0,0,0,0,0,1001.7,1015.1
59,2022-09-12T00:58:00,1.9,西,3.3,西,24.2,97.3,0,0,0,0,0,0,1001.7,1015.1
60,2022-09-12T00:59:00,1.8,西,2.7,西南西,24.1,97.2,0,0,0,0,0,0,1001.7,1015.1
61,2022-09-12T01:00:00,1.8,西,2.5,西,24.1,97.1,0,0,0,0,0,0,1001.6,1015
62,2022-09-12T01:01:00,1.8,西,2.5,西,24.2,97.4,0,0,0,0,0,0,1001.6,1015
63,2022-09-12T01:02:00,1.8,西,2.5,西,24.2,97.5,0,0,0,0,0,0,1001.6,1015
64,2022-09-12T01:03:00,1.8,西,2.5,西,24.2,97.3,0,0,0,0,0,0,1001.6,1015
65,2022-09-12T01:04:00,1.8,西,2.7,西,24.2,97.3,0,0,0,0,0,0,1001.6,1015
66,2022-09-12T01:05:00,1.9,西,2.9,西北西,24.2,97.1,0,0,0,0,0,0,1001.6,1015
67,2022-09-12T01:06:00,1.9,西,2.9,西北西,24.2,97.1,0,0,0,0,0,0,1001.6,1015
68,2022-09-12T01:07:00,1.9,西,2.9,西北西,24.2,97.1,0,0,0,0,0,0,1001.6,1015
69,2022-09-12T01:08:00,1.9,西,2.9,西北西,24.2,97.2,0,0,0,0,0,0,1001.6,1015
70,2022-09-12T01:09:00,1.9,西,2.9,西北西,24.1,97.1,0,0,0,0,0,0,1001.6,1015
71,2022-09-12T01:10:00,1.9,西北西,2.9,西北西,24.3,97.3,0,0,0,0,0,0,1001.6,1015
72,2022-09-12T01:11:00,1.9,西北西,2.9,西北西,24.2,97.2,0,0,0,0,0,0,1001.6,1015
73,2022-09-12T01:12:00,1.9,西,2.9,西北西,24.1,97,0,0,0,0,0,0,1001.6,1015
74,2022-09-12T01:13:00,1.9,西,2.9,西北西,24.1,96.9,0,0,0,0,0,0,1001.6,1015
75,2022-09-12T01:14:00,1.9,西,2.9,西北西,24.1,97,0,0,0,0,0,0,1001.6,1015
76,2022-09-12T01:15:00,1.9,西,2.8,西,24,97,0,0,0,0,0,0,1001.6,1015
77,2022-09-12T01:16:00,1.9,西,2.8,西,24,97,0,0,0,0,0,0,1001.6,1015
78,2022-09-12T01:17:00,1.9,西,2.8,西,24,97.1,0,0,0,0,0,0,1001.6,1015
79,2022-09-12T01:18:00,1.9,西,2.6,西,23.9,97.1,0,0,0,0,0,0,1001.5,1014.9
80,2022-09-12T01:19:00,2,西,2.7,西北西,23.9,97.2,0,0,0,0,0,0,1001.6,1015
81,2022-09-12T01:20:00,2,西,2.9,西,23.9,97.3,0,0,0,0,0,0,1001.5,1014.9
82,2022-09-12T01:21:00,2,西,2.9,西,23.9,97.4,0,0,0,0,0,0,1001.5,1014.9
83,2022-09-12T01:22:00,2,西,2.9,西,23.8,97.4,0,0,0,0,0,0,1001.6,1015
84,2022-09-12T01:23:00,2,西,2.9,西,23.9,97.5,0,0,0,0,0,0,1001.6,1015
85,2022-09-12T01:24:00,1.9,西,2.9,西,23.9,97.5,0,0,0,0,0,0,1001.6,1015
86,2022-09-12T01:25:00,1.8,西,2.9,西,24.2,97.8,0,0,0,0,0,0,1001.6,1015
87,2022-09-12T01:26:00,1.7,西,2.9,西,24.4,97.9,0,0,0,0,0,0,1001.5,1014.9
88,2022-09-12T01:27:00,1.6,西,2.9,西,24.5,97.9,0,0,0,0,0,0,1001.5,1014.9
89,2022-09-12T01:28:00,1.5,西,2.9,西,24.5,97.7,0,0,0,0,0,0,1001.5,1014.9
90,2022-09-12T01:29:00,1.4,西,2.9,西,24.5,97.2,0,0,0,0,0,0,1001.5,1014.9
91,2022-09-12T01:30:00,1.4,西北西,2.6,西,24.2,96.4,0,0,0,0,0,0,1001.5,1014.9
92,2022-09-12T01:31:00,1.4,西北西,2.6,西,24.1,96,0,0,0,0,0,0,1001.5,1014.9
93,2022-09-12T01:32:00,1.4,西北西,2.7,西,24.1,95.9,0,0,0,0,0,0,1001.5,1014.9
94,2022-09-12T01:33:00,1.4,西北西,2.7,西,24.1,96.2,0,0,0,0,0,0,1001.5,1014.9
95,2022-09-12T01:34:00,1.5,西,2.7,西,24,96.3,0,0,0,0,0,0,1001.5,1014.9
96,2022-09-12T01:35:00,1.5,西,2.7,西,24.1,96.6,0,0,0,0,0,0,1001.5,1014.9
97,2022-09-12T01:36:00,1.5,西,2.7,西,24,96.6,0,0,0,0,0,0,1001.5,1014.9
98,2022-09-12T01:37:00,1.5,西,2.7,西,24,96.5,0,0,0,0,0,0,1001.5,1014.9
99,2022-09-12T01:38:00,1.5,西,2.7,西,23.9,96.5,0,0,0,0,0,0,1001.5,1014.9
100,2022-09-12T01:39:00,1.6,西,2.7,西,24,96.7,0,0,0,0,0,0,1001.5,1014.9
101,2022-09-12T01:40:00,1.6,西,2.7,西,23.9,96.8,0,0,0,0,0,0,1001.5,1014.9
102,2022-09-12T01:41:00,1.5,西,2.7,西,23.9,96.8,0,0,0,0,0,0,1001.4,1014.8
103,2022-09-12T01:42:00,1.6,西,3.8,西,23.8,96.8,0,0,0,0,0,0,1001.4,1014.8
104,2022-09-12T01:43:00,1.7,西,3.8,西,23.8,97,0,0,0,0,0,0,1001.4,1014.8
105,2022-09-12T01:44:00,1.8,西,3.8,西,23.7,97.1,0,0,0,0,0,0,1001.4,1014.8
106,2022-09-12T01:45:00,1.9,西,3.8,西,23.8,97.2,0,0,0,0,0,0,1001.4,1014.8
107,2022-09-12T01:46:00,1.9,西,3.8,西,23.8,97.3,0,0,0,0,0,0,1001.4,1014.8
108,2022-09-12T01:47:00,2,西,3.8,西,23.8,97.5,0,0,0,0,0,0,1001.3,1014.7
109,2022-09-12T01:48:00,2,西,3.8,西,23.8,97.5,0,0,0,0,0,0,1001.3,1014.7
110,2022-09-12T01:49:00,2,西,3.8,西,23.8,97.5,0,0,0,0,0,0,1001.3,1014.7
111,2022-09-12T01:50:00,2,西,3.8,西,23.9,97.5,0,0,0,0,0,0,1001.3,1014.7
112,2022-09-12T01:51:00,2,西,3.8,西,23.9,97.6,0,0,0,0,0,0,1001.3,1014.7
113,2022-09-12T01:52:00,1.9,西,3.4,西,23.8,97.3,0,0,0,0,0,0,1001.3,1014.7
114,2022-09-12T01:53:00,1.8,西,2.9,西,23.8,97.2,0,0,0,0,0,0,1001.2,1014.6
115,2022-09-12T01:54:00,1.7,西,2.6,西,23.7,97.1,0,0,0,0,0,0,1001.3,1014.7
116,2022-09-12T01:55:00,1.7,西,2.4,西,23.7,97.2,0,0,0,0,0,0,1001.3,1014.7
117,2022-09-12T01:56:00,1.6,西,2.3,西,23.7,97.3,0,0,0,0,0,0,1001.2,1014.6
118,2022-09-12T01:57:00,1.6,西,2.3,西,23.8,97.4,0,0,0,0,0,0,1001.2,1014.6
119,2022-09-12T01:58:00,1.6,西,2.3,西,23.8,97.5,0,0,0,0,0,0,1001.2,1014.6
120,2022-09-12T01:59:00,1.6,西,2.3,西,23.8,97.4,0,0,0,0,0,0,1001.3,1014.7
121,2022-09-12T02:00:00,1.6,西,2.3,西,23.7,97.4,0,0,0,0,0,0,1001.3,1014.7
122,2022-09-12T02:01:00,1.6,西,2.3,西,23.7,97.4,0,0,0,0,0,0,1001.3,1014.7
123,2022-09-12T02:02:00,1.6,西,2.2,西,23.7,97.5,0,0,0,0,0,0,1001.3,1014.7
124,2022-09-12T02:03:00,1.6,西,2.4,西,23.7,97.5,0,0,0,0,0,0,1001.3,1014.7
125,2022-09-12T02:04:00,1.7,西,2.4,西,23.7,97.6,0,0,0,0,0,0,1001.3,1014.7
126,2022-09-12T02:05:00,1.7,西,2.4,西,23.6,97.6,0,0,0,0,0,0,1001.3,1014.7
127,2022-09-12T02:06:00,1.7,西,2.4,西,23.6,97.7,0,0,0,0,0,0,1001.2,1014.6
128,2022-09-12T02:07:00,1.8,西,2.4,西,23.7,97.8,0,0,0,0,0,0,1001.2,1014.6
129,2022-09-12T02:08:00,1.8,西,2.6,西,23.6,97.8,0,0,0,0,0,0,1001.2,1014.6
130,2022-09-12T02:09:00,1.9,西,2.6,西,23.6,97.8,0,0,0,0,0,0,1001.2,1014.6
131,2022-09-12T02:10:00,2,西,2.6,西,23.6,97.8,0,0,0,0,0,0,1001.2,1014.6
132,2022-09-12T02:11:00,2,西,2.6,西,23.7,97.9,0,0,0,0,0,0,1001.2,1014.6
133,2022-09-12T02:12:00,2,西,2.6,西,23.7,97.9,0,0,0,0,0,0,1001.2,1014.6
134,2022-09-12T02:13:00,1.9,西,2.6,西,23.6,97.9,0,0,0,0,0,0,1001.2,1014.6
135,2022-09-12T02:14:00,1.9,西,2.6,西,23.6,97.9,0,0,0,0,0,0,1001.2,1014.6
136,2022-09-12T02:15:00,1.9,西,2.6,西,23.6,97.8,0,0,0,0,0,0,1001.2,1014.6
137,2022-09-12T02:16:00,1.8,西,2.6,西,23.6,97.9,0,0,0,0,0,0,1001.2,1014.6
138,2022-09-12T02:17:00,1.8,西,2.6,西,23.7,97.9,0,0,0,0,0,0,1001.2,1014.6
139,2022-09-12T02:18:00,1.8,西,2.7,西,23.6,97.8,0,0,0,0,0,0,1001.2,1014.6
140,2022-09-12T02:19:00,1.9,西,2.7,西,23.6,97.8,0,0,0,0,0,0,1001.2,1014.6
141,2022-09-12T02:20:00,1.9,西,2.7,西,23.6,97.8,0,0,0,0,0,0,1001.2,1014.6
142,2022-09-12T02:21:00,1.9,西,2.7,西,23.7,97.8,0,0,0,0,0,0,1001.2,1014.6
143,2022-09-12T02:22:00,1.9,西,2.7,西,23.6,97.8,0,0,0,0,0,0,1001.2,1014.6
144,2022-09-12T02:23:00,1.9,西,2.7,西,23.6,97.8,0,0,0,0,0,0,1001.2,1014.6
145,2022-09-12T02:24:00,1.9,西,2.7,西,23.7,97.8,0,0,0,0,0,0,1001.2,1014.6
146,2022-09-12T02:25:00,2,西,2.7,西,23.7,97.8,0,0,0,0,0,0,1001.2,1014.6
147,2022-09-12T02:26:00,2,西,2.7,西,23.8,97.8,0,0,0,0,0,0,1001.2,1014.6
148,2022-09-12T02:27:00,2,西,2.7,西,23.7,97.8,0,0,0,0,0,0,1001.2,1014.6
149,2022-09-12T02:28:00,2,西,2.6,西,23.7,97.7,0,0,0,0,0,0,1001.2,1014.6
150,2022-09-12T02:29:00,2,西,2.6,西,23.7,97.7,0,0,0,0,0,0,1001.2,1014.6
151,2022-09-12T02:30:00,2,西,2.6,西,23.6,97.6,0,0,0,0,0,0,1001.2,1014.6
152,2022-09-12T02:31:00,2,西,2.6,西北西,23.6,97.7,0,0,0,0,0,0,1001.2,1014.6
153,2022-09-12T02:32:00,2,西,2.6,西北西,23.7,97.7,0,0,0,0,0,0,1001.3,1014.7
154,2022-09-12T02:33:00,2,西,2.6,西北西,23.7,97.8,0,0,0,0,0,0,1001.3,1014.7
155,2022-09-12T02:34:00,2,西,2.6,西北西,23.7,97.8,0,0,0,0,0,0,1001.3,1014.7
156,2022-09-12T02:35:00,1.9,西,2.6,西北西,23.7,97.8,0,0,0,0,0,0,1001.3,1014.7
157,2022-09-12T02:36:00,1.9,西,2.6,西北西,23.8,97.9,0,0,0,0,0,0,1001.3,1014.7
158,2022-09-12T02:37:00,1.8,西北西,2.6,西北西,23.8,97.9,0,0,0,0,0,0,1001.3,1014.7
159,2022-09-12T02:38:00,1.7,西北西,2.6,西北西,23.9,97.9,0,0,0,0,0,0,1001.3,1014.7
160,2022-09-12T02:39:00,1.7,西北西,2.6,西北西,23.9,97.8,0,0,0,0,0,0,1001.3,1014.7
161,2022-09-12T02:40:00,1.6,西北西,2.3,西,23.9,97.8,0,0,0,0,0,0,1001.3,1014.7
162,2022-09-12T02:41:00,1.5,西北西,2.3,西,23.8,97.6,0,0,0,0,0,0,1001.3,1014.7
163,2022-09-12T02:42:00,1.4,西北西,2.1,西,24,97.7,0,0,0,0,0,0,1001.3,1014.7
164,2022-09-12T02:43:00,1.3,西北西,1.9,西北西,24.1,97.7,0,0,0,0,0,0,1001.3,1014.7
165,2022-09-12T02:44:00,1.3,西北西,1.9,西北西,24,97.5,0,0,0,0,0,0,1001.3,1014.7
166,2022-09-12T02:45:00,1.2,西北西,1.9,西北西,24,97.4,0,0,0,0,0,0,1001.3,1014.7
167,2022-09-12T02:46:00,1.1,西北西,1.9,西北西,24.1,97.3,0,0,0,0,0,0,1001.3,1014.7
168,2022-09-12T02:47:00,1.1,西北西,1.9,西北西,24.1,97.2,0,0,0,0,0,0,1001.3,1014.7
169,2022-09-12T02:48:00,1,西北西,1.7,西北西,24.1,96.9,0,0,0,0,0,0,1001.3,1014.7
170,2022-09-12T02:49:00,0.9,西北西,1.7,西北西,24.2,97,0,0,0,0,0,0,1001.3,1014.7
171,2022-09-12T02:50:00,0.9,西北西,1.6,西北西,24.1,96.9,0,0,0,0,0,0,1001.4,1014.8
172,2022-09-12T02:51:00,0.8,北西,1.6,西北西,24.2,96.9,0,0,0,0,0,0,1001.3,1014.7
173,2022-09-12T02:52:00,0.8,北西,1.6,西北西,24.1,96.7,0,0,0,0,0,0,1001.3,1014.7
174,2022-09-12T02:53:00,0.8,北西,1.6,西北西,24,96.4,0,0,0,0,0,0,1001.3,1014.7
175,2022-09-12T02:54:00,0.8,北西,1.6,西北西,24.1,96.5,0,0,0,0,0,0,1001.3,1014.7
176,2022-09-12T02:55:00,0.8,北西,1.6,西北西,24.1,96.5,0,0,0,0,0,0,1001.3,1014.7
177,2022-09-12T02:56:00,0.8,北西,1.6,西北西,24,96.4,0,0,0,0,0,0,1001.3,1014.7
178,2022-09-12T02:57:00,0.9,北西,1.7,西北西,24.1,96.5,0,0,0,0,0,0,1001.3,1014.7
179,2022-09-12T02:58:00,0.9,北西,1.7,西北西,24,96.4,0,0,0,0,0,0,1001.3,1014.7
180,2022-09-12T02:59:00,0.9,北西,1.7,西北西,24,96.3,0,0,0,0,0,0,1001.3,1014.7
181,2022-09-12T03:00:00,1,西北西,1.7,西北西,23.9,96.4,0,0,0,0,0,0,1001.3,1014.7
182,2022-09-12T03:01:00,1,西北西,1.7,西北西,24,96.7,0,0,0,0,0,0,1001.3,1014.7
183,2022-09-12T03:02:00,1,西北西,1.7,西北西,23.9,96.6,0,0,0,0,0,0,1001.3,1014.7
184,2022-09-12T03:03:00,1,西北西,1.7,西北西,23.9,96.6,0,0,0,0,0,0,1001.3,1014.7
185,2022-09-12T03:04:00,1,西,1.7,西北西,23.9,96.7,0,0,0,0,0,0,1001.3,1014.7
186,2022-09-12T03:05:00,0.9,西,1.7,西北西,23.9,96.7,0,0,0,0,0,0,1001.3,1014.7
187,2022-09-12T03:06:00,0.8,西,1.7,西北西,23.9,96.7,0,0,0,0,0,0,1001.2,1014.6
188,2022-09-12T03:07:00,0.7,西北西,1.5,西,23.9,96.9,0,0,0,0,0,0,1001.2,1014.6
189,2022-09-12T03:08:00,0.6,西北西,1.5,西,23.8,96.8,0,0,0,0,0,0,1001.3,1014.7
190,2022-09-12T03:09:00,0.5,西北西,1.2,西,23.8,96.9,0,0,0,0,0,0,1001.3,1014.7
191,2022-09-12T03:10:00,0.4,西北西,1.2,西,23.9,97.1,0,0,0,0,0,0,1001.2,1014.6
192,2022-09-12T03:11:00,0.4,北西,1.2,西,23.9,97.1,0,0,0,0,0,0,1001.3,1014.7
193,2022-09-12T03:12:00,0.4,北北西,1.3,北東,23.9,97.1,0,0,0,0,0,0,1001.2,1014.6
194,2022-09-12T03:13:00,0.5,北北西,1.5,北東,24,97.3,0,0,0,0,0,0,1001.2,1014.6
195,2022-09-12T03:14:00,0.4,北,1.5,北東,24,97.3,0,0,0,0,0,0,1001.2,1014.6
196,2022-09-12T03:15:00,0.5,北,1.5,北東,24,97.1,0,0,0,0,0,0,1001.2,1014.6
197,2022-09-12T03:16:00,0.5,北北東,1.5,北東,24,97,0,0,0,0,0,0,1001.2,1014.6
198,2022-09-12T03:17:00,0.6,北北東,1.5,北東,24,96.8,0,0,0,0,0,0,1001.2,1014.6
199,2022-09-12T03:18:00,0.6,北北東,1.5,北東,24,96.8,0,0,0,0,0,0,1001.3,1014.7
200,2022-09-12T03:19:00,0.6,北北東,1.5,北東,23.9,96.6,0,0,0,0,0,0,1001.3,1014.7
201,2022-09-12T03:20:00,0.7,北北東,1.5,北東,23.9,96.4,0,0,0,0,0,0,1001.3,1014.7
202,2022-09-12T03:21:00,0.7,北北東,1.5,北東,24,96.6,0,0,0,0,0,0,1001.3,1014.7
203,2022-09-12T03:22:00,0.6,北北東,1.5,北東,24,96.7,0,0,0,0,0,0,1001.3,1014.7
204,2022-09-12T03:23:00,0.6,北北東,1.3,北北東,24.1,96.7,0,0,0,0,0,0,1001.3,1014.7
205,2022-09-12T03:24:00,0.6,北北東,1.3,北北東,24,96.6,0,0,0,0,0,0,1001.3,1014.7
206,2022-09-12T03:25:00,0.6,北北東,1.3,北北東,24.1,96.6,0,0,0,0,0,0,1001.3,1014.7
207,2022-09-12T03:26:00,0.7,北北東,1.1,北北東,24.1,96.6,0,0,0,0,0,0,1001.3,1014.7
208,2022-09-12T03:27:00,0.7,北北東,1.1,北北東,24.1,96.4,0,0,0,0,0,0,1001.3,1014.7
209,2022-09-12T03:28:00,0.7,北北東,1.2,北北東,24.2,96.2,0,0,0,0,0,0,1001.3,1014.7
210,2022-09-12T03:29:00,0.8,北北東,1.2,北北東,24.2,96.2,0,0,0,0,0,0,1001.3,1014.7
211,2022-09-12T03:30:00,0.9,北北東,1.3,北北東,24.2,96,0,0,0,0,0,0,1001.3,1014.7
212,2022-09-12T03:31:00,0.9,北北東,1.3,北北東,24.2,95.8,0,0,0,0,0,0,1001.3,1014.7
213,2022-09-12T03:32:00,0.9,北北東,1.3,北北東,24.2,95.8,0,0,0,0,0,0,1001.3,1014.7
214,2022-09-12T03:33:00,0.9,北北東,1.3,北北東,24.2,95.9,0,0,0,0,0,0,1001.3,1014.7
215,2022-09-12T03:34:00,1,北北東,1.3,北北東,24.2,95.8,0,0,0,0,0,0,1001.3,1014.7
216,2022-09-12T03:35:00,1,北北東,1.3,北北東,24.1,95.6,0,0,0,0,0,0,1001.2,1014.6
217,2022-09-12T03:36:00,0.9,北北東,1.3,北北東,24.1,95.5,0,0,0,0,0,0,1001.2,1014.6
218,2022-09-12T03:37:00,0.9,北北東,1.3,北北東,24,95.5,0,0,0,0,0,0,1001.2,1014.6
219,2022-09-12T03:38:00,0.9,北東,1.3,北北東,24.1,95.7,0,0,0,0,0,0,1001.2,1014.6
220,2022-09-12T03:39:00,0.8,北東,1.3,北北東,24,95.8,0,0,0,0,0,0,1001.2,1014.6
221,2022-09-12T03:40:00,0.8,北東,1.3,北北東,24,95.8,0,0,0,0,0,0,1001.2,1014.6
222,2022-09-12T03:41:00,0.7,北東,1.2,北北東,24,95.8,0,0,0,0,0,0,1001.2,1014.6
223,2022-09-12T03:42:00,0.7,北東,1.2,北北東,24,96.1,0,0,0,0,0,0,1001.2,1014.6
224,2022-09-12T03:43:00,0.6,北東,1.1,東北東,23.9,96,0,0,0,0,0,0,1001.2,1014.6
225,2022-09-12T03:44:00,0.6,北東,1.1,東北東,23.9,96,0,0,0,0,0,0,1001.1,1014.5
226,2022-09-12T03:45:00,0.6,北東,1.1,東北東,23.9,96.1,0,0,0,0,0,0,1001.1,1014.5
227,2022-09-12T03:46:00,0.6,北東,1.4,北東,24,96.3,0,0,0,0,0,0,1001.1,1014.5
228,2022-09-12T03:47:00,0.6,北東,1.4,北東,24,96.4,0,0,0,0,0,0,1001.1,1014.5
229,2022-09-12T03:48:00,0.6,北東,1.4,北東,24.1,96.6,0,0,0,0,0,0,1001.1,1014.5
230,2022-09-12T03:49:00,0.6,北東,1.4,北東,24.1,96.5,0,0,0,0,0,0,1001.1,1014.5
231,2022-09-12T03:50:00,0.5,北北東,1.4,北東,23.9,96.2,0,0,0,0,0,0,1001.1,1014.5
232,2022-09-12T03:51:00,0.5,北北東,1.4,北東,23.8,95.8,0,0,0,0,0,0,1001.1,1014.5
233,2022-09-12T03:52:00,0.4,北北東,1.4,北東,23.8,96,0,0,0,0,0,0,1001.1,1014.5
234,2022-09-12T03:53:00,0.4,北北東,1.4,北東,23.8,96.3,0,0,0,0,0,0,1001.1,1014.5
235,2022-09-12T03:54:00,0.4,北北東,1.4,北東,24,96.6,0,0,0,0,0,0,1001.1,1014.5
236,2022-09-12T03:55:00,0.3,北北東,1.4,北東,24.2,96.9,0,0,0,0,0,0,1001.1,1014.5
237,2022-09-12T03:56:00,0.3,北北東,1,北北東,24.1,96.7,0,0,0,0,0,0,1001.1,1014.5
238,2022-09-12T03:57:00,0.3,北,0.9,北,24,96.4,0,0,0,0,0,0,1001.1,1014.5
239,2022-09-12T03:58:00,0.3,北,0.9,北,23.9,96.1,0,0,0,0,0,0,1001,1014.4
240,2022-09-12T03:59:00,,"",,"",,,,,,,,,,
241,2022-09-12T04:00:00,0.3,北北西,1.2,西北西,23.9,96.2,0,0,0,0,0,0,1001,1014.4
242,2022-09-12T04:01:00,0.4,北西,1.3,西北西,23.8,96.1,0,0,0,0,0,0,1001,1014.4
243,2022-09-12T04:02:00,0.5,北西,1.3,西北西,23.8,96.3,0,0,0,0,0,0,1001,1014.4
244,2022-09-12T04:03:00,0.6,北西,1.3,西北西,23.9,96.5,0,0,0,0,0,0,1001,1014.4
245,2022-09-12T04:04:00,0.7,西北西,1.3,西北西,23.9,96.6,0,0,0,0,0,0,1001,1014.4
246,2022-09-12T04:05:00,0.7,西北西,1.3,西北西,23.8,96.5,0,0,0,0,0,0,1001,1014.4
247,2022-09-12T04:06:00,0.7,西北西,1.3,西北西,23.9,96.6,0,0,0,0,0,0,1001,1014.4
248,2022-09-12T04:07:00,0.8,西,1.3,西北西,23.9,96.6,0,0,0,0,0,0,1001.1,1014.5
249,2022-09-12T04:08:00,0.8,西,1.3,西北西,23.8,96.6,0,0,0,0,0,0,1001.1,1014.5
250,2022-09-12T04:09:00,0.9,西,1.3,西北西,23.8,96.6,0,0,0,0,0,0,1001,1014.4
251,2022-09-12T04:10:00,0.9,西,1.3,西北西,23.9,96.7,0,0,0,0,0,0,1001.1,1014.5
252,2022-09-12T04:11:00,0.9,西,1.6,西,23.9,96.7,0,0,0,0,0,0,1001.1,1014.5
253,2022-09-12T04:12:00,0.9,西,2,西,23.8,96.7,0,0,0,0,0,0,1001.1,1014.5
254,2022-09-12T04:13:00,1,西,2,西,23.8,96.6,0,0,0,0,0,0,1001.1,1014.5
255,2022-09-12T04:14:00,1.1,西,2.2,西,23.6,96.4,0,0,0,0,0,0,1001.1,1014.5
256,2022-09-12T04:15:00,1.2,西,2.2,西,23.5,96.5,0,0,0,0,0,0,1001.1,1014.5
257,2022-09-12T04:16:00,1.3,西,2.6,西南西,23.5,96.7,0,0,0,0,0,0,1001.1,1014.5
258,2022-09-12T04:17:00,1.5,西,2.6,西南西,23.4,96.9,0,0,0,0,0,0,1001.1,1014.5
259,2022-09-12T04:18:00,1.6,西,2.6,西南西,23.5,97.2,0,0,0,0,0,0,1001.1,1014.5
260,2022-09-12T04:19:00,1.7,西,2.6,西南西,23.4,97.4,0,0,0,0,0,0,1001.2,1014.6
261,2022-09-12T04:20:00,1.8,西,2.9,西,23.4,97.5,0,0,0,0,0,0,1001.2,1014.6
262,2022-09-12T04:21:00,2,西,2.9,西,23.4,97.7,0,0,0,0,0,0,1001.2,1014.6
263,2022-09-12T04:22:00,2,西,3,西,23.3,97.7,0,0,0,0,0,0,1001.2,1014.6
264,2022-09-12T04:23:00,2.1,西,3,西,23.3,97.9,0,0,0,0,0,0,1001.2,1014.6
265,2022-09-12T04:24:00,2.2,西,3,西,23.3,97.9,0,0,0,0,0,0,1001.2,1014.6
266,2022-09-12T04:25:00,2.3,西,3,西,23.3,97.9,0,0,0,0,0,0,1001.2,1014.6
267,2022-09-12T04:26:00,2.3,西,3,西,23.3,98,0,0,0,0,0,0,1001.1,1014.5
268,2022-09-12T04:27:00,2.3,西,3,西,23.2,98,0,0,0,0,0,0,1001.1,1014.6
269,2022-09-12T04:28:00,2.3,西,3,西,23.3,98.1,0,0,0,0,0,0,1001.1,1014.5
270,2022-09-12T04:29:00,2.2,西,3,西,23.3,98.1,0,0,0,0,0,0,1001.1,1014.5
271,2022-09-12T04:30:00,2.2,西,3,西,23.4,98.2,0,0,0,0,0,0,1001.1,1014.5
272,2022-09-12T04:31:00,2.2,西,3,西,23.4,98.2,0,0,0,0,0,0,1001.2,1014.6
273,2022-09-12T04:32:00,2.2,西,3,西,23.3,98.2,0,0,0,0,0,0,1001.2,1014.6
274,2022-09-12T04:33:00,2.1,西,2.7,西,23.4,98.2,0,0,0,0,0,0,1001.2,1014.6
275,2022-09-12T04:34:00,2,西,2.6,西,23.4,98.2,0,0,0,0,0,0,1001.2,1014.6
276,2022-09-12T04:35:00,2,西,2.6,西,23.4,98.2,0,0,0,0,0,0,1001.2,1014.6
277,2022-09-12T04:36:00,1.9,西,2.6,西,23.4,98.2,0,0,0,0,0,0,1001.2,1014.6
278,2022-09-12T04:37:00,1.9,西,2.6,西,23.4,98.2,0,0,0,0,0,0,1001.2,1014.6
279,2022-09-12T04:38:00,1.8,西,2.6,西,23.4,98.2,0,0,0,0,0,0,1001.2,1014.6
280,2022-09-12T04:39:00,1.8,西,2.6,西,23.4,98.2,0,0,0,0,0,0,1001.2,1014.6
281,2022-09-12T04:40:00,1.7,西,2.4,西,23.4,98.2,0,0,0,0,0,0,1001.2,1014.6
282,2022-09-12T04:41:00,1.7,西,2.3,西,23.4,98.2,0,0,0,0,0,0,1001.2,1014.6
283,2022-09-12T04:42:00,1.6,西,2.2,西,23.4,98.2,0,0,0,0,0,0,1001.2,1014.6
284,2022-09-12T04:43:00,1.6,西,2.2,西,23.5,98.2,0,0,0,0,0,0,1001.2,1014.6
285,2022-09-12T04:44:00,1.5,西,2,西,23.5,98.2,0,0,0,0,0,0,1001.2,1014.6
286,2022-09-12T04:45:00,1.5,西,2,西,23.4,98.1,0,0,0,0,0,0,1001.3,1014.7
287,2022-09-12T04:46:00,1.4,西,2,西,23.4,98.1,0,0,0,0,0,0,1001.3,1014.7
288,2022-09-12T04:47:00,1.4,西,2,西,23.6,98.1,0,0,0,0,0,0,1001.3,1014.7
289,2022-09-12T04:48:00,1.3,西,2,西,23.6,98.1,0,0,0,0,0,0,1001.3,1014.7
290,2022-09-12T04:49:00,1.3,西,1.9,西北西,23.6,98.1,0,0,0,0,0,0,1001.3,1014.7
291,2022-09-12T04:50:00,1.2,西,1.9,西北西,23.6,98.1,0,0,0,0,0,0,1001.3,1014.7
292,2022-09-12T04:51:00,1.2,西,1.9,西北西,23.7,98.1,0,0,0,0,0,0,1001.3,1014.7
293,2022-09-12T04:52:00,1.2,西,1.9,西北西,23.7,98,0,0,0,0,0,0,1001.4,1014.8
294,2022-09-12T04:53:00,1.2,西,1.9,西北西,23.8,98,0,0,0,0,0,0,1001.4,1014.8
295,2022-09-12T04:54:00,1.2,西,1.7,西南西,23.7,97.9,0,0,0,0,0,0,1001.4,1014.8
296,2022-09-12T04:55:00,1.2,西,2,西南西,23.7,97.7,0,0,0,0,0,0,1001.4,1014.8
297,2022-09-12T04:56:00,1.3,西,2,西南西,23.6,97.6,0,0,0,0,0,0,1001.4,1014.8
298,2022-09-12T04:57:00,1.3,西,2,西南西,23.6,97.5,0,0,0,0,0,0,1001.3,1014.7
299,2022-09-12T04:58:00,1.4,西,2.1,西,23.6,97.6,0,0,0,0,0,0,1001.3,1014.7
300,2022-09-12T04:59:00,1.4,西,2.1,西,23.6,97.6,0,0,0,0,0,0,1001.3,1014.7
301,2022-09-12T05:00:00,1.5,西,2.1,西,23.7,97.7,0,0,0,0,0,0,1001.3,1014.7
302,2022-09-12T05:01:00,1.5,西,2.1,西,23.7,97.7,0,0,0,0,0,0,1001.3,1014.7
303,2022-09-12T05:02:00,1.6,西,2.2,西北西,23.7,97.7,0,0,0,0,0,0,1001.4,1014.8
304,2022-09-12T05:03:00,1.6,西,2.3,西北西,23.8,97.7,0,0,0,0,0,0,1001.4,1014.8
305,2022-09-12T05:04:00,1.7,西,2.3,西北西,23.7,97.5,0,0,0,0,0,0,1001.4,1014.8
306,2022-09-12T05:05:00,1.7,西,2.3,西北西,23.6,97.3,0,0,0,0,0,0,1001.4,1014.8
307,2022-09-12T05:06:00,1.7,西,2.3,西北西,23.7,97.4,0,0,0,0,0,0,1001.4,1014.8
308,2022-09-12T05:07:00,1.8,西,2.3,西北西,23.7,97.5,0,0,0,0,0,0,1001.4,1014.8
309,2022-09-12T05:08:00,1.7,西,2.3,西北西,23.6,97.4,0,0,0,0,0,0,1001.4,1014.8
310,2022-09-12T05:09:00,1.7,西,2.3,西北西,23.6,97.3,0,0,0,0,0,0,1001.5,1014.9
311,2022-09-12T05:10:00,1.7,西,2.3,西北西,23.6,97.5,0,0,0,0,0,0,1001.4,1014.8
312,2022-09-12T05:11:00,1.7,西,2.3,西北西,23.6,97.5,0,0,0,0,0,0,1001.4,1014.8
313,2022-09-12T05:12:00,1.6,西,2.3,西北西,23.5,97.6,0,0,0,0,0,0,1001.4,1014.8
314,2022-09-12T05:13:00,1.6,西,2.2,西,23.5,97.6,0,0,0,0,0,0,1001.4,1014.8
315,2022-09-12T05:14:00,1.6,西,2.3,西,23.5,97.7,0,0,0,0,0,0,1001.4,1014.8
316,2022-09-12T05:15:00,1.6,西,2.3,西,23.6,97.7,0,0,0,0,0,0,1001.4,1014.8
317,2022-09-12T05:16:00,1.6,西,2.3,西,23.6,97.8,0,0,0,0,0,0,1001.4,1014.8
318,2022-09-12T05:17:00,1.6,西,2.3,西,23.6,97.8,0,0,0,0,0,0,1001.5,1014.9
319,2022-09-12T05:18:00,1.6,西,2.3,西,23.6,97.8,0,0,0,0,0,0,1001.5,1014.9
320,2022-09-12T05:19:00,1.5,西,2.3,西,23.6,97.8,0,0,0,0,0,0,1001.5,1014.9
321,2022-09-12T05:20:00,1.4,西,2.3,西,23.7,97.8,0,0,0,0,0,0,1001.5,1014.9
322,2022-09-12T05:21:00,1.4,西,2.3,西,23.7,97.8,0,0,0,0,0,0,1001.5,1014.9
323,2022-09-12T05:22:00,1.4,西,2.3,西,23.6,97.7,0,0,0,0,0,0,1001.5,1014.9
324,2022-09-12T05:23:00,1.4,西,2.3,西,23.6,97.7,0,0,0,0,0,0,1001.5,1014.9
325,2022-09-12T05:24:00,1.3,西,2.2,西,23.7,97.7,0,0,0,0,0,0,1001.5,1014.9
326,2022-09-12T05:25:00,1.2,西北西,2.2,西,23.7,97.7,0,0,0,0,0,0,1001.6,1015
327,2022-09-12T05:26:00,1.2,西北西,2.2,西,23.8,97.7,0,0,0,0,0,0,1001.6,1015
328,2022-09-12T05:27:00,1.1,西北西,2.2,西,23.9,97.7,0,0,0,0,0,0,1001.6,1015
329,2022-09-12T05:28:00,1.1,西北西,2.2,西,23.8,97.5,0,0,0,0,0,0,1001.6,1015
330,2022-09-12T05:29:00,1.1,西北西,2.2,西,23.8,97.3,0,0,0,0,0,0,1001.6,1015
331,2022-09-12T05:30:00,1.2,西北西,2.2,西,23.8,97.3,0,0,0,0,0,0,1001.6,1015